Weather reports worldwide

Advertisment
Genova/Sestri, Italy (16120): temperature & dewpoint: 10.09.2019 17:00:00 - 16.09.2019 17:00:00 (CEST)Genova/Sestri, Italy (16120): wind speed: 10.09.2019 17:00:00 - 16.09.2019 17:00:00 (CEST)Genova/Sestri, Italy (16120): wind direction: 10.09.2019 17:00:00 - 16.09.2019 17:00:00 (CEST)Genova/Sestri, Italy (16120): reduced air pressure: 10.09.2019 17:00:00 - 16.09.2019 17:00:00 (CEST)Genova/Sestri, Italy (16120): visibility: 10.09.2019 17:00:00 - 16.09.2019 17:00:00 (CEST)
Date & Time tt [°C] td [°C] ff [km/h] ff [kn] dd ppp [hPa] vv [km]
16.09.2019 17:00:00 24,9 17,8 8 4 WSW 1017,8 10
16.09.2019 16:00:00 25,0 18,0 8 4 S - 10
16.09.2019 15:00:00 25,0 19,0 5 3 S - 10
16.09.2019 14:00:00 25,2 18,4 8 4 S 1019,3 10
16.09.2019 13:00:00 25,0 19,0 8 4 S - 10
16.09.2019 12:00:00 25,0 19,0 8 4 S - 10
16.09.2019 11:00:00 24,6 17,9 8 4 SSW 1020,3 10
16.09.2019 10:00:00 24,0 18,0 8 4 WSW - 10
16.09.2019 09:00:00 23,0 17,0 5 3 N - 10
16.09.2019 08:00:00 21,3 16,0 8 4 NNE 1019,6 10
16.09.2019 07:00:00 21,0 16,0 9 5 NNE - 10
16.09.2019 06:00:00 20,0 16,0 11 6 NNE - 10
16.09.2019 05:00:00 20,6 16,0 9 5 NNE 1020,0 10
16.09.2019 04:00:00 21,0 16,0 8 4 NNE - 10
16.09.2019 03:00:00 21,0 16,0 8 4 N - 10
16.09.2019 02:00:00 21,2 16,0 11 6 NNE 1020,9 10
16.09.2019 01:00:00 22,0 16,0 8 4 NNE - 10
16.09.2019 00:00:00 22,0 16,0 9 5 NNE - 10
15.09.2019 23:00:00 22,4 16,0 8 4 N 1021,7 10
15.09.2019 22:00:00 23,0 16,0 9 5 N - 10
15.09.2019 21:00:00 24,0 16,0 8 4 NE - 10
15.09.2019 20:00:00 23,7 17,5 4 2 SSE 1022,0 10
15.09.2019 19:00:00 25,0 18,0 4 2 SSE - 10
15.09.2019 18:00:00 26,0 18,0 2 1 - - 10
15.09.2019 17:00:00 25,7 18,8 5 3 SW 1022,5 10
15.09.2019 16:00:00 26,0 19,0 8 4 SSE - 10
15.09.2019 15:00:00 26,0 19,0 13 7 SE - 10
15.09.2019 14:00:00 26,0 18,9 15 8 SE 1023,9 10
15.09.2019 13:00:00 26,0 20,0 11 6 SSE - 10
15.09.2019 12:00:00 27,0 18,0 13 7 SSE - 10
15.09.2019 11:00:00 27,2 16,3 13 7 ENE 1025,1 10
15.09.2019 10:00:00 25,0 16,0 13 7 NNE - 10
15.09.2019 09:00:00 24,0 16,0 13 7 NNE - 10
15.09.2019 08:00:00 23,0 15,0 11 6 NNE 1024,6 10
15.09.2019 07:00:00 22,0 15,0 5 3 NNE - 10
15.09.2019 06:00:00 23,0 16,0 5 3 - - 10
15.09.2019 05:00:00 22,8 15,5 4 2 - 1024,5 10
15.09.2019 04:00:00 23,0 15,0 2 1 - - 10
15.09.2019 03:00:00 25,0 16,0 5 3 NE - 10
15.09.2019 02:00:00 24,6 16,2 8 4 NNE 1024,8 10
15.09.2019 01:00:00 25,0 15,0 4 2 - - 10
15.09.2019 00:00:00 26,0 16,0 8 4 NNE - 10
14.09.2019 23:00:00 25,9 15,4 9 5 NE 1025,4 10
14.09.2019 22:00:00 27,0 16,0 13 7 NE - 10
14.09.2019 21:00:00 27,0 16,0 9 5 NE - 10
14.09.2019 20:00:00 27,7 16,0 9 5 NNE 1024,7 10
14.09.2019 19:00:00 29,0 16,0 11 6 N - 10
14.09.2019 18:00:00 30,0 17,0 5 3 NW - 10
14.09.2019 17:00:00 30,3 18,0 9 5 NNW 1024,3 10
14.09.2019 16:00:00 31,0 16,0 13 7 NNW - 10
14.09.2019 15:00:00 31,0 18,0 9 5 W - 10
14.09.2019 14:00:00 29,8 17,1 9 5 SW 1025,9 10
14.09.2019 13:00:00 29,0 17,0 9 5 SW - 10
14.09.2019 12:00:00 28,0 16,0 11 6 NE - 10
14.09.2019 11:00:00 27,1 15,8 8 4 - 1027,4 10
14.09.2019 10:00:00 25,0 16,0 13 7 NE - 10
14.09.2019 09:00:00 24,0 15,0 16 9 NE - 10
14.09.2019 08:00:00 22,9 14,6 15 8 NE 1027,1 28
14.09.2019 07:00:00 23,0 15,0 11 6 NNE - 10
14.09.2019 06:00:00 23,0 14,0 15 8 NNE - 10
14.09.2019 05:00:00 23,5 15,0 22 12 NE 1026,4 10
14.09.2019 04:00:00 23,0 15,0 8 4 N - 10
14.09.2019 03:00:00 23,0 16,0 5 3 NNW - 10
14.09.2019 02:00:00 23,5 14,9 0 0 N 1026,8 10
14.09.2019 01:00:00 23,0 16,0 4 2 - - 10
14.09.2019 00:00:00 25,0 15,0 8 4 N - 10
13.09.2019 23:00:00 25,3 15,0 5 3 NE 1027,1 10
13.09.2019 22:00:00 25,0 16,0 5 3 NNW - 10
13.09.2019 21:00:00 26,0 17,0 4 2 - - 10
13.09.2019 20:00:00 26,0 17,3 2 1 - 1026,6 10
13.09.2019 19:00:00 26,0 21,0 13 7 W - 10
13.09.2019 18:00:00 26,0 21,0 11 6 SE - 10
13.09.2019 17:00:00 26,4 19,9 13 7 SE 1026,6 10
13.09.2019 16:00:00 27,0 21,0 13 7 SSE - 10
13.09.2019 15:00:00 27,0 19,0 11 6 SE - 10
13.09.2019 14:00:00 26,7 20,0 15 8 SSE 1028,0 10
13.09.2019 13:00:00 29,0 17,0 11 6 SSW - 10
13.09.2019 12:00:00 28,0 17,0 11 6 SW - 10
13.09.2019 11:00:00 26,4 17,1 13 7 SW 1028,7 10
13.09.2019 10:00:00 26,0 16,0 9 5 NNE - 10
13.09.2019 09:00:00 24,0 16,0 4 2 - - 10
13.09.2019 08:00:00 23,2 15,0 5 3 NNE 1028,7 10
13.09.2019 07:00:00 23,0 15,0 8 4 N - 10
13.09.2019 06:00:00 23,0 15,0 5 3 N - 10
13.09.2019 05:00:00 23,3 14,5 9 5 N 1028,1 10
13.09.2019 04:00:00 22,0 15,0 4 2 - - 10
13.09.2019 03:00:00 22,0 14,0 5 3 NW - 10
13.09.2019 02:00:00 23,9 15,3 9 5 NNE 1027,6 10
13.09.2019 01:00:00 23,0 15,0 5 3 NNW - 10
13.09.2019 00:00:00 23,0 16,0 8 4 NNW - 10
12.09.2019 23:00:00 22,3 17,4 5 3 NW 1028,0 10
12.09.2019 22:00:00 23,0 18,0 5 3 NNE - 10
12.09.2019 21:00:00 24,0 19,0 4 2 - - 10
12.09.2019 20:00:00 23,9 18,7 4 2 WSW 1027,3 10
12.09.2019 19:00:00 24,0 20,0 8 4 WSW - 10
12.09.2019 18:00:00 25,0 20,0 11 6 WSW - 10
12.09.2019 17:00:00 25,1 20,0 11 6 SSW 1027,0 10
12.09.2019 16:00:00 26,0 18,0 5 3 S - 10
12.09.2019 15:00:00 26,0 17,0 8 4 SSE - 10
12.09.2019 14:00:00 25,4 18,7 8 4 SSE 1028,0 10
12.09.2019 13:00:00 25,0 19,0 8 4 S - 10
12.09.2019 12:00:00 26,0 19,0 9 5 S - 10
12.09.2019 11:00:00 27,1 14,2 4 2 - 1028,0 10
12.09.2019 10:00:00 25,0 14,0 5 3 - - 10
12.09.2019 09:00:00 24,0 14,0 13 7 NNE - 10
12.09.2019 08:00:00 22,6 13,3 5 3 NE 1025,7 10
12.09.2019 07:00:00 22,0 13,0 22 12 NE - 10
12.09.2019 06:00:00 22,0 13,0 21 11 NE - 10
12.09.2019 05:00:00 22,0 13,0 9 5 N 1023,6 10
12.09.2019 04:00:00 22,0 13,0 8 4 NE - 10
12.09.2019 03:00:00 22,0 14,0 4 2 - - 10
12.09.2019 02:00:00 22,2 15,4 4 2 S 1023,3 10
12.09.2019 01:00:00 22,0 14,0 4 2 - - 10
12.09.2019 00:00:00 22,0 15,0 5 3 NNE - 10
11.09.2019 23:00:00 21,7 14,7 9 5 N 1023,0 10
11.09.2019 22:00:00 22,0 15,0 8 4 NNE - 10
11.09.2019 21:00:00 22,0 15,0 8 4 NNE - 10
11.09.2019 20:00:00 23,1 15,7 4 2 - 1021,6 10
11.09.2019 19:00:00 24,0 17,0 4 2 S - 10
11.09.2019 18:00:00 25,0 17,0 4 2 - - 10
11.09.2019 17:00:00 24,3 16,5 5 3 SSE 1020,5 10
11.09.2019 16:00:00 26,0 18,0 15 8 SW - 10
11.09.2019 15:00:00 28,0 14,0 9 5 S - 10
11.09.2019 14:00:00 27,4 16,9 8 4 SW 1020,2 10
11.09.2019 13:00:00 28,0 13,0 11 6 NNE - 10
11.09.2019 12:00:00 25,0 14,0 15 8 NE - 10
11.09.2019 11:00:00 24,1 13,3 16 9 NE 1020,6 10
11.09.2019 10:00:00 22,0 13,0 13 7 NE - 10
11.09.2019 09:00:00 20,0 12,0 18 10 NE - 10
11.09.2019 08:00:00 19,1 11,4 16 9 ENE 1019,0 10
11.09.2019 07:00:00 18,0 11,0 18 10 ENE - 10
11.09.2019 06:00:00 19,0 12,0 16 9 NE - 10
11.09.2019 05:00:00 18,4 11,3 16 9 NE 1018,6 10
11.09.2019 04:00:00 19,0 11,0 8 4 ENE - 10
11.09.2019 03:00:00 19,0 11,0 13 7 NE - 10
11.09.2019 02:00:00 18,7 11,9 11 6 NE 1018,4 10
11.09.2019 01:00:00 19,0 13,0 8 4 ENE - 10
11.09.2019 00:00:00 21,0 13,0 13 7 N - 10
10.09.2019 23:00:00 20,5 12,9 11 6 NNE 1017,5 10
10.09.2019 22:00:00 20,0 13,0 21 11 NNE - 10
10.09.2019 21:00:00 20,0 13,0 18 10 NNE - 10
10.09.2019 20:00:00 20,4 13,2 22 12 NNE 1016,1 10
10.09.2019 19:00:00 20,0 14,0 5 3 - - 10
10.09.2019 18:00:00 20,0 13,0 11 6 NE - 10
10.09.2019 17:00:00 20,8 13,6 13 7 NNE 1016,0 10

tt = temperature
td = dewpoint
ff = wind speed
dd = wind direction
ppp = reduced air pressure
vv = visibility

Next stations